Copper Harbor, MI

7:31 AM EDT on May 30, 2017 (GMT -0400)
Copper Harbor

Weather History for KP59 - November, 2013

Change the Weather History Date:

Friday, November 1, 2013

  Actual Average Record
Temperature  
Mean Temperature 43 °F -  
Max Temperature 44 °F 43 °F 64 °F (2001)
Min Temperature 41 °F 32 °F 3 °F (1997)
Degree Days  
Heating Degree Days 22    
Moisture  
Dew Point 37 °F    
Average Humidity 81    
Maximum Humidity 93    
Minimum Humidity 67    
Precipitation  
Precipitation 0.01 in - - ()
Sea Level Pressure  
Sea Level Pressure 29.46 in    
Wind  
Wind Speed 16 mph (NE)    
Max Wind Speed 20 mph    
Max Gust Speed 26 mph    
Averages and records for this station are not official NWS values.
T = Trace of Precipitation, MM = Missing Value Source: NWS Daily Summary

Daily Weather History Graph

Daily Weather History Graph

Search for Another Location

Airport or City:

Trip Planner

Search our weather history database for the weather conditions in past years. The results will help you decide how hot, cold, wet, or windy it might be!

Date:

Astronomy

Nov. 01, 2013 Rise Set
Actual Time 8:35 AM EDT 6:33 PM EDT
Civil Twilight 8:03 AM EDT 7:06 PM EDT
Nautical Twilight 7:27 AM EDT 7:42 PM EDT
Astronomical Twilight 6:51 AM EDT 8:18 PM EDT
Moon 6:20 AM EDT (11/1) 5:32 PM EDT (11/1)
Length of Visible Light 11h 02m
Length of Day
9h 58m
Waning Crescent, 4% of the Moon is Illuminated
Nov 1
Waning Crescent
Nov 3
New
Nov 10
First Quarter
Nov 17
Full
Nov 25
Last Quarter

Hourly Weather History & Observations

Time (EDT) Temp. Windchill Dew Point Humidity Pressure Visibility Wind Dir Wind Speed Gust Speed Precip Events Conditions
12:51 AM 45.0 °F 37.9 °F 43.0 °F 93% 29.19 in - NNE 16.1 mph - 0.01 in   Unknown
1:51 AM 44.1 °F 35.9 °F 42.1 °F 93% 29.19 in - NNE 19.6 mph - N/A   Unknown
2:51 AM 44.1 °F 36.2 °F 42.1 °F 93% 29.20 in - NNE 18.4 mph 26.5 mph N/A   Unknown
3:51 AM 44.1 °F 36.8 °F 41.0 °F 89% 29.22 in - NNE 16.1 mph 25.3 mph N/A   Unknown
4:51 AM 44.1 °F 35.9 °F 41.0 °F 89% 29.22 in - NNE 19.6 mph 26.5 mph N/A   Unknown
5:51 AM 44.1 °F 35.9 °F 41.0 °F 89% 29.25 in - NNE 19.6 mph 25.3 mph N/A   Unknown
6:51 AM 43.0 °F 34.5 °F 39.9 °F 89% 29.28 in - NNE 19.6 mph - N/A   Unknown
7:51 AM 43.0 °F 34.5 °F 39.0 °F 86% 29.31 in - NNE 19.6 mph - N/A   Unknown
8:51 AM 43.0 °F 35.1 °F 37.9 °F 82% 29.34 in - NNE 17.3 mph - N/A   Unknown
9:51 AM 43.0 °F 35.1 °F 37.9 °F 82% 29.39 in - NNE 17.3 mph - N/A   Unknown
10:51 AM 42.1 °F 33.6 °F 37.0 °F 82% 29.42 in - NNE 18.4 mph - N/A   Unknown
11:51 AM 42.1 °F 33.6 °F 37.0 °F 82% 29.44 in - NNE 18.4 mph - N/A   Unknown
12:51 PM 42.1 °F 34.9 °F 37.0 °F 82% 29.47 in - NNE 13.8 mph 20.7 mph N/A   Unknown
1:51 PM 42.1 °F 35.7 °F 35.1 °F 76% 29.50 in - NNE 11.5 mph - N/A   Unknown
2:51 PM 42.1 °F 35.2 °F 36.0 °F 79% 29.52 in - NE 12.7 mph 18.4 mph N/A   Unknown
3:51 PM 41.0 °F 33.9 °F 35.1 °F 79% 29.55 in - ENE 12.7 mph - N/A   Unknown
4:51 PM 42.1 °F 34.9 °F 34.0 °F 73% 29.59 in - NNE 13.8 mph - N/A   Unknown
5:51 PM 41.0 °F 35.2 °F 33.1 °F 73% 29.62 in - ENE 9.2 mph - N/A   Unknown
6:51 PM 41.0 °F 34.7 °F 33.1 °F 73% 29.65 in - ENE 10.4 mph - N/A   Unknown
7:51 PM 42.1 °F 36.6 °F 32.0 °F 67% 29.68 in - NNE 9.2 mph - N/A   Unknown
8:51 PM 42.1 °F 37.1 °F 32.0 °F 67% 29.70 in - NE 8.1 mph - N/A   Unknown
9:51 PM 42.1 °F 35.7 °F 33.1 °F 70% 29.72 in - ENE 11.5 mph - N/A   Unknown
10:51 PM 41.0 °F 34.3 °F 34.0 °F 76% 29.74 in - East 11.5 mph - N/A   Unknown
11:51 PM 42.1 °F 35.2 °F 33.1 °F 70% 29.75 in - ENE 12.7 mph - N/A   Unknown